(299286) = 2005 PO7

Discovered at Palomar on 2005-08-04 by NEAT.

Orbit

Orbit type: Main Belt

Note: WebGL enabled browser required.

epoch2023-09-13.0
epoch JD2460200.5
perihelion date2022-03-12.42287
perihelion JD2459650.92287
argument of perihelion (°)215.92380
ascending node (°)104.08656
inclination (°)2.69237
eccentricity0.1664471
perihelion distance (AU)2.6047318
Tisserand w.r.t. Jupiter3.2
ΔV w.r.t. Earth (km/sec)10.2
semimajor axis (AU)3.1248547
mean anomaly (°)98.05907
mean daily motion (°/day)0.17842640
aphelion distance (AU)3.645
period (years)5.52
P-vector [x]0.76553243
P-vector [y]-0.57880106
P-vector [z]-0.28097942
Q-vector [x]0.64178213
Q-vector [y]0.71787005
Q-vector [z]0.26977452
absolute magnitude16.37
phase slope0.15
uncertainty0
referenceMPEC 2023-Y46
observations used258
oppositions15
arc length (days)7203
first opposition used2004
last opposition used2023
residual rms (arc-secs)0.75
perturbers coarse indicatorM-v
perturbers precise indicator003Ek
first observation date used2004-03-26.0
last observation date used2023-12-15.0
computer nameMPCLINUX
JD of orbit computation2456760.907952
perihelion JD uncertainty (days)2.0476E-04
argument of perihelion uncertainty (°)2.2600E-04
ascending node uncertainty (°)2.2376E-04
inclination uncertainty (°)7.0162E-06
eccentricity uncertainty 7.7004E-08
perihelion distance uncertainty (AU)2.2121E-07
Minimum Orbit Intersection Distances (in AU)
for orbit epoch: 2460200.5, reference: E2023-Y46
Mercury2.18349
Venus1.87689
Earth1.5918
Mars1.2162
Jupiter1.65627
Saturn5.51324
Uranus14.8361
Neptune26.6261

Observations

264 total observations over interval: 2004 03 26.33723 – 2023 12 15.309355
These data are available for download (format description).

Date (UT) J2000 RA J2000 Dec Magn Location Ref
2004 03 26.33723 15 07 17.03 -14 04 17.4 22.2 V 291 – LPL/Spacewatch II MPS 149579
2004 03 26.34800 15 07 16.85 -14 04 16.4 21.9 V 291 – LPL/Spacewatch II MPS 149579
2004 03 26.35889 15 07 16.67 -14 04 15.1 21.7 V 291 – LPL/Spacewatch II MPS 149579
2004 05 09.25453 14 39 49.54 -11 56 17.9 21.1 V 691 – Steward Observatory, Kitt Peak-Spacewatch MPS 149579
2004 05 09.28266 14 39 48.16 -11 56 13.1 21.5 V 691 – Steward Observatory, Kitt Peak-Spacewatch MPS 149579
2004 05 09.31106 14 39 46.79 -11 56 07.3 21.1 V 691 – Steward Observatory, Kitt Peak-Spacewatch MPS 149579
2005 08 04.36460 22 05 14.74 -14 33 30.2 20.1   644 – Palomar Mountain/NEAT MPS 139392
2005 08 04.37604 22 05 14.28 -14 33 33.7 19.9   644 – Palomar Mountain/NEAT MPS 139392
2005 08 04.39343 22 05 13.58 -14 33 38.4 20.0   644 – Palomar Mountain/NEAT MPS 139392
2005 08 05.38032 22 04 34.98 -14 38 21.8 20.0   644 – Palomar Mountain/NEAT MPS 139392
2005 08 05.39190 22 04 34.49 -14 38 25.1 20.0   644 – Palomar Mountain/NEAT MPS 139392
2005 08 05.41239 22 04 33.65 -14 38 31.1 20.0   644 – Palomar Mountain/NEAT MPS 139392
2005 08 06.36398 22 03 55.77 -14 43 06.5 19.7   644 – Palomar Mountain/NEAT MPS 139697
2005 08 06.38803 22 03 54.75 -14 43 13.5 19.8   644 – Palomar Mountain/NEAT MPS 139697
2005 08 06.41972 22 03 53.41 -14 43 22.6 19.7   644 – Palomar Mountain/NEAT MPS 139697
2005 08 22.29631 21 52 18.76 -16 00 20.1 19.8   644 – Palomar Mountain/NEAT MPS 139697
2005 08 22.31805 21 52 17.73 -16 00 25.4 19.4   644 – Palomar Mountain/NEAT MPS 139697
2005 08 22.33961 21 52 16.75 -16 00 31.8 19.9   644 – Palomar Mountain/NEAT MPS 139697
2005 08 30.19551 21 46 34.49 -16 34 29.7 19.5 R 644 – Palomar Mountain/NEAT MPS 141120
2005 08 30.22085 21 46 33.31 -16 34 35.8 19.5 R 644 – Palomar Mountain/NEAT MPS 141120
2005 08 30.24657 21 46 32.20 -16 34 41.5 19.7 R 644 – Palomar Mountain/NEAT MPS 141120
2006 10 21.37213 04 39 06.08 +19 30 45.3 21.9 V G96 – Mt. Lemmon Survey MPS 184093
2006 10 21.37701 04 39 05.97 +19 30 45.9 21.4 V G96 – Mt. Lemmon Survey MPS 184093
2006 10 21.38184 04 39 05.86 +19 30 44.6 22.0 V G96 – Mt. Lemmon Survey MPS 184093
2006 10 21.38678 04 39 05.72 +19 30 45.2 21.0 V G96 – Mt. Lemmon Survey MPS 184093
2006 11 11.41264 04 26 27.49 +19 04 31.8 20.6 V G96 – Mt. Lemmon Survey MPS 187025
2006 11 11.41713 04 26 27.31 +19 04 32.4 21.7 V G96 – Mt. Lemmon Survey MPS 187025
2006 11 11.42167 04 26 27.09 +19 04 31.1 20.9 V G96 – Mt. Lemmon Survey MPS 187025
2006 11 11.42617 04 26 26.73 +19 04 30.7 20.8 V G96 – Mt. Lemmon Survey MPS 187025
2006 11 17.95904 04 21 07.11 +18 54 04.8   A79 – Zvezdno Obshtestvo Observatory, Plana MPS 188718
2006 11 17.96913 04 21 06.46 +18 54 05.9   A79 – Zvezdno Obshtestvo Observatory, Plana MPS 188718
2006 11 17.98014 04 21 05.89 +18 54 02.2 19.9 R A79 – Zvezdno Obshtestvo Observatory, Plana MPS 188718
2006 12 09.13477 04 03 03.33 +18 19 53.8 23.0 R H07 – 7300 Observatory, Cloudcroft MPS 192227
2006 12 09.14028 04 03 03.14 +18 19 53.2 22.7 R H07 – 7300 Observatory, Cloudcroft MPS 192227
2006 12 09.14579 04 03 02.83 +18 19 52.9 21.9 R H07 – 7300 Observatory, Cloudcroft MPS 192227
2006 12 10.27475 04 02 09.36 +18 18 18.7 22.4 R H07 – 7300 Observatory, Cloudcroft MPS 192227
2006 12 10.28009 04 02 08.98 +18 18 15.9 23.4 R H07 – 7300 Observatory, Cloudcroft MPS 192227
2009 03 27.33112 12 19 45.69 +01 55 00.0 21.2 V G96 – Mt. Lemmon Survey MPS 281291
2009 03 27.33993 12 19 45.22 +01 55 02.7 20.7 V G96 – Mt. Lemmon Survey MPS 281291
2009 03 27.34874 12 19 44.83 +01 55 04.8 21.1 V G96 – Mt. Lemmon Survey MPS 281291
2009 03 27.35738 12 19 44.43 +01 55 07.0 21.0 V G96 – Mt. Lemmon Survey MPS 281291
2010 06 08.443261 17 31 28.392 -21 38 18.20 20.13 r F51 – Pan-STARRS 1, Haleakala MPS 337337
2010 06 08.454942 17 31 27.780 -21 38 18.24 20.26 r F51 – Pan-STARRS 1, Haleakala MPS 337337
2011 09 20.23113 01 21 20.35 +04 10 29.5 20.4 V 691 – Steward Observatory, Kitt Peak-Spacewatch MPS 391111
2011 09 20.24887 01 21 19.69 +04 10 24.9 20.2 V 691 – Steward Observatory, Kitt Peak-Spacewatch MPS 391111
2011 09 20.26660 01 21 19.05 +04 10 20.1 20.3 V 691 – Steward Observatory, Kitt Peak-Spacewatch MPS 391111
2011 09 23.45784 01 19 19.905 +03 56 17.16 20.6 w F51 – Pan-STARRS 1, Haleakala MPS 392644
2011 09 23.47321 01 19 19.284 +03 56 13.06 20.3 w F51 – Pan-STARRS 1, Haleakala MPS 392644
2011 09 23.50415 01 19 18.024 +03 56 04.83 20.5 w F51 – Pan-STARRS 1, Haleakala MPS 392644
2011 10 25.32223 00 56 09.624 +01 36 24.54 20.7 g F51 – Pan-STARRS 1, Haleakala MPS 398096
2011 10 25.33451 00 56 09.108 +01 36 21.99 20.7 g F51 – Pan-STARRS 1, Haleakala MPS 398096
2014 03 20.26739 10 01 02.388 +15 06 03.10 21.6 w F51 – Pan-STARRS 1, Haleakala MPS 508364
2014 03 20.27919 10 01 01.988 +15 06 05.04 21.6 w F51 – Pan-STARRS 1, Haleakala MPS 508364
2014 03 20.29255 10 01 01.519 +15 06 07.11 21.7 w F51 – Pan-STARRS 1, Haleakala MPS 508364
2015 03 17.55371 14 33 31.126 -11 24 57.35 21.2 w F51 – Pan-STARRS 1, Haleakala MPS 591864
2015 03 17.56677 14 33 30.906 -11 24 55.67 21.5 w F51 – Pan-STARRS 1, Haleakala MPS 591864
2015 03 17.57980 14 33 30.683 -11 24 54.01 21.4 w F51 – Pan-STARRS 1, Haleakala MPS 591864
2015 03 18.52586 14 33 15.261 -11 22 55.28 21.4 w F51 – Pan-STARRS 1, Haleakala MPS 591864
2015 03 18.53866 14 33 15.029 -11 22 53.52 21.5 w F51 – Pan-STARRS 1, Haleakala MPS 591864
2015 03 18.55137 14 33 14.801 -11 22 51.58 21.6 w F51 – Pan-STARRS 1, Haleakala MPS 591864
2015 03 18.56411 14 33 14.550 -11 22 50.47 21.6 w F51 – Pan-STARRS 1, Haleakala MPS 591864
2015 03 19.50741 14 32 58.036 -11 20 46.70 21.4 w F51 – Pan-STARRS 1, Haleakala MPS 591864
2015 03 19.53677 14 32 57.449 -11 20 42.61 21.3 w F51 – Pan-STARRS 1, Haleakala MPS 591864
2015 03 19.56265 14 32 56.938 -11 20 39.36 21.5 w F51 – Pan-STARRS 1, Haleakala MPS 591864
2015 04 21.45711 14 13 51.931 -09 31 15.00 20.7 w F51 – Pan-STARRS 1, Haleakala MPS 602922
2015 04 21.47003 14 13 51.318 -09 31 11.72 20.9 w F51 – Pan-STARRS 1, Haleakala MPS 602922
2015 04 21.52071 14 13 48.918 -09 30 59.79 20.6 w F51 – Pan-STARRS 1, Haleakala MPS 602922
2015 04 21.53366 14 13 48.296 -09 30 56.60 20.7 w F51 – Pan-STARRS 1, Haleakala MPS 602922
2015 04 23.39066 14 12 22.836 -09 23 39.51 20.6 w F51 – Pan-STARRS 1, Haleakala MPS 602922
2015 04 23.40316 14 12 22.237 -09 23 36.65 20.5 w F51 – Pan-STARRS 1, Haleakala MPS 602922
2015 04 23.41568 14 12 21.635 -09 23 33.75 20.6 w F51 – Pan-STARRS 1, Haleakala MPS 602922
2015 04 23.42817 14 12 21.043 -09 23 30.73 20.6 w F51 – Pan-STARRS 1, Haleakala MPS 602922
2015 04 25.45560 14 10 46.897 -09 15 35.93 20.7 w F51 – Pan-STARRS 1, Haleakala MPS 604476
2015 04 25.46782 14 10 46.305 -09 15 32.97 20.7 w F51 – Pan-STARRS 1, Haleakala MPS 604476
2015 04 25.47993 14 10 45.730 -09 15 30.23 20.8 w F51 – Pan-STARRS 1, Haleakala MPS 604476
2015 05 18.38144 13 54 16.919 -07 59 05.71 20.8 w F52 – Pan-STARRS 2, Haleakala MPS 608408
2015 05 18.39610 13 54 16.345 -07 59 03.55 20.9 w F52 – Pan-STARRS 2, Haleakala MPS 608408
2015 05 18.41069 13 54 15.792 -07 59 01.35 20.7 w F52 – Pan-STARRS 2, Haleakala MPS 608408
2015 05 25.22879 13 50 30.76 -07 44 36.0 20.0 V G96 – Mt. Lemmon Survey MPS 609686
2015 05 25.23393 13 50 30.60 -07 44 35.6 20.5 V G96 – Mt. Lemmon Survey MPS 609686
2015 05 25.23906 13 50 30.38 -07 44 33.9 20.6 V G96 – Mt. Lemmon Survey MPS 609686
2015 05 25.24419 13 50 30.26 -07 44 34.0 20.9 V G96 – Mt. Lemmon Survey MPS 609686
2016 07 08.51765 21 26 20.066 -16 45 05.59 20.1 w F51 – Pan-STARRS 1, Haleakala MPS 721087
2016 07 08.52773 21 26 19.811 -16 45 07.61 20.2 w F51 – Pan-STARRS 1, Haleakala MPS 721087
2016 07 08.53781 21 26 19.567 -16 45 09.41 20.0 w F51 – Pan-STARRS 1, Haleakala MPS 721087
2016 07 08.54787 21 26 19.309 -16 45 11.40 20.1 w F51 – Pan-STARRS 1, Haleakala MPS 721087
2016 08 08.41764 21 06 33.144 -18 53 36.90 19.6 w F51 – Pan-STARRS 1, Haleakala MPS 724797
2016 08 08.42877 21 06 32.599 -18 53 39.74 19.6 w F51 – Pan-STARRS 1, Haleakala MPS 724797
2016 08 08.43990 21 06 32.056 -18 53 42.68 19.6 w F51 – Pan-STARRS 1, Haleakala MPS 724797
2016 08 08.45108 21 06 31.513 -18 53 45.50 19.5 w F51 – Pan-STARRS 1, Haleakala MPS 724797
2016 08 08.45304 21 06 31.420 -18 53 46.03 19.6 w F51 – Pan-STARRS 1, Haleakala MPS 724797
